When you browse on this site, cookies collect data to enhance your experience and personalize the content and advertising you see.
Visit our Privacy Policy to learn more. By continuing to use the site, you agree to this use of cookies and data.
  • In Österreich
  • Länderverzeichnis
  • Für 7 Tage
  • Wassertemperatur
  • Wetterkarte
  • News
  • Widgets
  • user-avatar
    Anmelden

    Stündliche Wetter Portu

    Heute, 3 April, Freitag

    Zeit Temperatur Niederschläge Wind Luftdruck Luftfeuchtigkeit
    00:00 +12°C° 0 mm 2 m/S 755 mmHg 81%
    01:00 +12°C° 0 mm 2 m/S 755 mmHg 82%
    02:00 +10°C° 0 mm 2 m/S 755 mmHg 82%
    03:00 +10°C° 0 mm 2 m/S 755 mmHg 83%
    04:00 +10°C° 0 mm 2 m/S 755 mmHg 83%
    05:00 +10°C° 0 mm 2 m/S 755 mmHg 83%
    06:00 +12°C° 0 mm 1 m/S 755 mmHg 75%
    07:00 +14°C° 0 mm 1 m/S 755 mmHg 67%
    08:00 +16°C° 0 mm 1 m/S 755 mmHg 59%
    09:00 +19°C° 0 mm 1 m/S 755 mmHg 54%
    10:00 +20°C° 0 mm 2 m/S 755 mmHg 48%
    11:00 +21°C° 0 mm 2 m/S 754 mmHg 42%
    12:00 +21°C° 0 mm 2 m/S 754 mmHg 42%
    13:00 +21°C° 0 mm 2 m/S 754 mmHg 42%
    14:00 +21°C° 0 mm 2 m/S 753 mmHg 42%
    15:00 +20°C° 0 mm 2 m/S 753 mmHg 47%
    16:00 +19°C° 0 mm 2 m/S 753 mmHg 51%
    17:00 +18°C° 0 mm 2 m/S 752 mmHg 55%
    18:00 +18°C° 0 mm 1 m/S 753 mmHg 59%
    19:00 +15°C° 0 mm 1 m/S 753 mmHg 63%
    20:00 +13°C° 0 mm 0 m/S 753 mmHg 67%
    21:00 +14°C° 0 mm 1 m/S 753 mmHg 68%
    22:00 +13°C° 0 mm 1 m/S 753 mmHg 69%
    23:00 +13°C° 0 mm 1 m/S 754 mmHg 69%

    Morgen, 4 April, Samstag

    Zeit Temperatur Niederschläge Wind Luftdruck Luftfeuchtigkeit
    00:00 +13°C° 0 mm 1 m/S 753 mmHg 69%
    01:00 +13°C° 0 mm 2 m/S 753 mmHg 68%
    02:00 +12°C° 0 mm 2 m/S 752 mmHg 68%
    03:00 +12°C° 0 mm 2 m/S 752 mmHg 68%
    04:00 +12°C° 0 mm 2 m/S 752 mmHg 68%
    05:00 +11°C° 0 mm 3 m/S 752 mmHg 69%
    06:00 +13°C° 0 mm 3 m/S 752 mmHg 64%
    07:00 +15°C° 0 mm 4 m/S 752 mmHg 60%
    08:00 +17°C° 0 mm 4 m/S 752 mmHg 55%
    09:00 +19°C° 0 mm 5 m/S 752 mmHg 51%
    10:00 +20°C° 0 mm 6 m/S 752 mmHg 46%
    11:00 +21°C° 0 mm 6 m/S 752 mmHg 42%
    12:00 +21°C° 0 mm 6 m/S 751 mmHg 43%
    13:00 +20°C° 0 mm 6 m/S 751 mmHg 44%
    14:00 +20°C° 0 mm 6 m/S 751 mmHg 45%
    15:00 +19°C° 0 mm 6 m/S 751 mmHg 52%
    16:00 +17°C° 0 mm 6 m/S 751 mmHg 58%
    17:00 +16°C° 0 mm 6 m/S 751 mmHg 64%
    18:00 +16°C° 0 mm 6 m/S 751 mmHg 67%
    19:00 +15°C° 0 mm 6 m/S 751 mmHg 71%
    20:00 +15°C° 0 mm 6 m/S 752 mmHg 74%
    21:00 +14°C° 0 mm 6 m/S 752 mmHg 74%
    22:00 +14°C° 0 mm 6 m/S 752 mmHg 75%
    23:00 +14°C° 0 mm 6 m/S 752 mmHg 75%

    übermorgen, 5 April, Sonntag

    Zeit Temperatur Niederschläge Wind Luftdruck Luftfeuchtigkeit
    00:00 +14°C° 0.1 mm 6 m/S 751 mmHg 76%
    01:00 +14°C° 0.1 mm 7 m/S 751 mmHg 78%
    02:00 +14°C° 0.1 mm 7 m/S 751 mmHg 79%
    03:00 +14°C° 0.2 mm 7 m/S 751 mmHg 80%
    04:00 +14°C° 0.2 mm 7 m/S 751 mmHg 82%
    05:00 +14°C° 0.2 mm 6 m/S 751 mmHg 83%
    06:00 +14°C° 0.1 mm 7 m/S 751 mmHg 83%
    07:00 +14°C° 0.1 mm 7 m/S 751 mmHg 82%
    08:00 +15°C° 0.1 mm 7 m/S 751 mmHg 82%
    09:00 +15°C° 0.6 mm 7 m/S 751 mmHg 82%
    10:00 +15°C° 0.6 mm 7 m/S 751 mmHg 82%
    11:00 +16°C° 0.6 mm 7 m/S 751 mmHg 83%
    12:00 +16°C° 1.9 mm 7 m/S 751 mmHg 85%
    13:00 +16°C° 1.9 mm 7 m/S 751 mmHg 87%
    14:00 +16°C° 1.9 mm 7 m/S 751 mmHg 90%
    15:00 +16°C° 1.2 mm 6 m/S 751 mmHg 92%
    16:00 +15°C° 1.2 mm 4 m/S 752 mmHg 93%
    17:00 +16°C° 1.2 mm 3 m/S 752 mmHg 95%
    18:00 +16°C° 0.1 mm 3 m/S 753 mmHg 95%
    19:00 +14°C° 0.1 mm 3 m/S 754 mmHg 95%
    20:00 +14°C° 0.1 mm 2 m/S 754 mmHg 94%
    21:00 +14°C° 0.1 mm 2 m/S 755 mmHg 95%
    22:00 +14°C° 0.1 mm 2 m/S 755 mmHg 95%
    23:00 +13°C° 0.1 mm 2 m/S 756 mmHg 95%

    6 April, Montag

    Zeit Temperatur Niederschläge Wind Luftdruck Luftfeuchtigkeit
    00:00 +13°C° 0.1 mm 2 m/S 756 mmHg 94%
    01:00 +13°C° 0.1 mm 2 m/S 756 mmHg 93%
    02:00 +13°C° 0.1 mm 2 m/S 757 mmHg 92%
    03:00 +13°C° 0 mm 2 m/S 757 mmHg 91%
    04:00 +12°C° 0 mm 1 m/S 757 mmHg 90%
    05:00 +12°C° 0 mm 1 m/S 758 mmHg 90%
    06:00 +13°C° 0 mm 1 m/S 758 mmHg 83%
    07:00 +15°C° 0 mm 1 m/S 759 mmHg 77%
    08:00 +16°C° 0 mm 1 m/S 759 mmHg 71%
    09:00 +17°C° 0 mm 2 m/S 759 mmHg 61%
    10:00 +19°C° 0 mm 2 m/S 760 mmHg 52%
    11:00 +20°C° 0 mm 2 m/S 760 mmHg 43%
    12:00 +20°C° 0 mm 3 m/S 760 mmHg 43%
    13:00 +20°C° 0 mm 3 m/S 760 mmHg 42%
    14:00 +20°C° 0 mm 4 m/S 760 mmHg 42%
    15:00 +19°C° 0 mm 4 m/S 760 mmHg 46%
    16:00 +18°C° 0 mm 4 m/S 760 mmHg 50%
    17:00 +17°C° 0 mm 4 m/S 760 mmHg 55%
    18:00 +15°C° 0 mm 4 m/S 760 mmHg 59%
    19:00 +13°C° 0 mm 3 m/S 761 mmHg 64%
    20:00 +12°C° 0 mm 3 m/S 761 mmHg 68%
    21:00 +13°C° 0 mm 2 m/S 761 mmHg 70%
    22:00 +12°C° 0 mm 2 m/S 762 mmHg 71%
    23:00 +12°C° 0 mm 2 m/S 762 mmHg 72%

    7 April, Dienstag

    Zeit Temperatur Niederschläge Wind Luftdruck Luftfeuchtigkeit
    00:00 +12°C° 0 mm 2 m/S 761 mmHg 73%
    01:00 +12°C° 0 mm 2 m/S 761 mmHg 73%
    02:00 +10°C° 0 mm 2 m/S 761 mmHg 74%
    03:00 +11°C° 0 mm 1 m/S 761 mmHg 74%
    04:00 +11°C° 0 mm 1 m/S 761 mmHg 74%
    05:00 +11°C° 0 mm 1 m/S 761 mmHg 75%
    06:00 +13°C° 0 mm 1 m/S 761 mmHg 68%
    07:00 +15°C° 0 mm 1 m/S 761 mmHg 62%
    08:00 +18°C° 0 mm 1 m/S 761 mmHg 56%
    09:00 +19°C° 0 mm 2 m/S 761 mmHg 51%
    10:00 +21°C° 0 mm 2 m/S 761 mmHg 47%
    11:00 +24°C° 0 mm 2 m/S 761 mmHg 43%
    12:00 +24°C° 0 mm 2 m/S 761 mmHg 43%
    13:00 +24°C° 0 mm 2 m/S 761 mmHg 43%
    14:00 +24°C° 0 mm 3 m/S 760 mmHg 43%
    15:00 +23°C° 0 mm 2 m/S 760 mmHg 47%
    16:00 +21°C° 0 mm 2 m/S 760 mmHg 52%
    17:00 +20°C° 0 mm 2 m/S 760 mmHg 56%
    18:00 +19°C° 0 mm 1 m/S 760 mmHg 59%
    19:00 +18°C° 0 mm 1 m/S 760 mmHg 62%
    20:00 +15°C° 0 mm 0 m/S 761 mmHg 65%
    21:00 +14°C° 0 mm 0 m/S 761 mmHg 67%
    22:00 +15°C° 0 mm 1 m/S 761 mmHg 68%
    23:00 +15°C° 0 mm 1 m/S 761 mmHg 69%

    8 April, Mittwoch

    Zeit Temperatur Niederschläge Wind Luftdruck Luftfeuchtigkeit
    00:00 +15°C° 0 mm 1 m/S 761 mmHg 71%
    01:00 +15°C° 0 mm 2 m/S 760 mmHg 72%
    02:00 +14°C° 0 mm 2 m/S 760 mmHg 74%
    03:00 +15°C° 0 mm 2 m/S 760 mmHg 74%
    04:00 +15°C° 0 mm 1 m/S 760 mmHg 74%
    05:00 +15°C° 0 mm 1 m/S 760 mmHg 74%
    06:00 +15°C° 0 mm 2 m/S 761 mmHg 74%
    07:00 +16°C° 0 mm 2 m/S 761 mmHg 74%
    08:00 +16°C° 0 mm 2 m/S 761 mmHg 74%
    09:00 +17°C° 0.1 mm 2 m/S 761 mmHg 76%
    10:00 +17°C° 0.1 mm 2 m/S 761 mmHg 78%
    11:00 +17°C° 0.1 mm 2 m/S 761 mmHg 79%
    12:00 +18°C° 0.2 mm 1 m/S 761 mmHg 82%
    13:00 +18°C° 0.2 mm 1 m/S 761 mmHg 84%
    14:00 +18°C° 0.2 mm 1 m/S 761 mmHg 86%
    15:00 +18°C° 0.1 mm 1 m/S 761 mmHg 87%
    16:00 +16°C° 0.1 mm 1 m/S 760 mmHg 87%
    17:00 +16°C° 0.1 mm 1 m/S 760 mmHg 88%
    18:00 +16°C° 0 mm 1 m/S 761 mmHg 87%
    19:00 +16°C° 0 mm 1 m/S 761 mmHg 87%
    20:00 +16°C° 0 mm 1 m/S 761 mmHg 87%
    21:00 +15°C° 0 mm 1 m/S 761 mmHg 86%
    22:00 +15°C° 0 mm 1 m/S 761 mmHg 86%
    23:00 +15°C° 0 mm 1 m/S 761 mmHg 86%
    Mehr zeigen